�N����,����,�~����,�C��,���x,�C��,����,���ϕ���,�ő�u�ԕ���,�ő厞����,���˗�,�I�_���x,�n�����x,�ő啗���N��,DTYPE
"23/04/04","00:10",0.0,8.5,84.7,1019.4,315.4,2.8,3.9,315.5,0.00,6.1,13.3,"00:04:40",1
"23/04/04","00:20",0.0,8.7,85.6,1019.4,324.3,3.0,4.2,316.7,0.00,6.5,13.3,"00:18:48",1
"23/04/04","00:30",0.0,8.9,85.8,1019.4,308.5,2.8,5.0,321.0,0.00,6.7,13.3,"00:23:36",1
"23/04/04","00:40",0.0,8.7,86.1,1019.7,315.1,2.3,3.6,323.6,0.00,6.5,13.5,"00:36:32",1
"23/04/04","00:50",0.0,8.4,86.4,1019.9,285.8,2.3,3.2,301.9,0.00,6.3,13.3,"00:40:16",1
"23/04/04","01:00",0.0,8.2,86.9,1019.7,305.1,2.7,4.0,313.8,0.00,6.2,13.3,"00:56:32",1
"23/04/04","01:10",0.0,8.3,87.4,1019.7,324.8,3.0,4.5,320.6,0.00,6.4,13.3,"01:07:32",1
"23/04/04","01:20",0.0,8.4,87.6,1019.9,320.8,3.4,5.2,322.2,0.00,6.5,13.1,"01:14:32",1
"23/04/04","01:30",0.0,8.1,87.7,1019.7,300.0,2.3,2.9,298.1,0.00,6.2,13.2,"01:20:08",1
"23/04/04","01:40",0.0,8.0,88.0,1019.7,295.0,2.7,4.1,309.5,0.00,6.2,13.0,"01:33:36",1
"23/04/04","01:50",0.0,8.1,88.4,1019.7,317.6,3.4,4.9,334.1,0.00,6.3,13.1,"01:48:40",1
"23/04/04","02:00",0.0,8.3,88.3,1019.7,320.0,3.9,4.8,321.6,0.00,6.5,13.1,"01:50:48",1
"23/04/04","02:10",0.0,8.4,88.0,1019.7,324.4,4.4,5.5,321.5,0.00,6.6,13.0,"02:07:52",1
"23/04/04","02:20",0.0,8.4,87.8,1019.7,323.4,3.9,5.7,329.3,0.00,6.5,12.9,"02:13:44",1
"23/04/04","02:30",0.0,8.0,87.8,1019.9,323.5,2.8,3.9,318.4,0.00,6.1,12.9,"02:26:56",1
"23/04/04","02:40",0.0,7.8,88.2,1019.4,329.8,3.4,4.5,333.8,0.00,6.0,13.0,"02:35:36",1
"23/04/04","02:50",0.0,7.8,88.5,1019.4,332.7,3.0,4.3,339.8,0.00,6.1,12.8,"02:44:16",1
"23/04/04","03:00",0.0,8.1,88.7,1019.0,321.0,3.6,6.4,306.2,0.00,6.4,12.8,"02:54:56",1
"23/04/04","03:10",0.0,8.2,88.7,1019.2,320.4,3.9,5.6,298.4,0.00,6.5,12.8,"03:00:08",1
"23/04/04","03:20",0.0,8.2,88.6,1019.7,308.4,3.9,5.4,321.4,0.00,6.5,12.6,"03:14:08",1
"23/04/04","03:30",0.0,8.1,88.7,1019.4,320.7,4.4,5.7,339.1,0.00,6.4,12.7,"03:25:04",1
"23/04/04","03:40",0.0,8.0,88.6,1019.2,324.4,4.0,5.8,331.1,0.00,6.3,12.7,"03:37:20",1
"23/04/04","03:50",0.0,7.9,88.7,1018.7,325.2,3.4,5.2,326.8,0.00,6.2,12.6,"03:40:32",1
"23/04/04","04:00",0.0,7.8,88.9,1018.7,325.0,3.2,5.0,317.1,0.00,6.1,12.7,"03:55:36",1
"23/04/04","04:10",0.0,7.9,89.1,1019.0,322.6,3.5,4.8,329.3,0.00,6.3,12.7,"04:09:04",1
"23/04/04","04:20",0.0,7.8,89.2,1018.5,327.2,2.8,5.4,325.8,0.00,6.2,12.5,"04:10:24",1
"23/04/04","04:30",0.0,7.4,89.6,1019.0,325.6,2.7,4.4,331.5,0.00,5.8,12.4,"04:29:04",1
"23/04/04","04:40",0.0,7.4,89.9,1018.7,322.0,3.6,5.1,331.6,0.00,5.9,12.5,"04:30:48",1
"23/04/04","04:50",0.0,7.4,90.2,1019.0,298.1,3.0,4.4,306.0,0.00,5.9,12.5,"04:42:08",1
"23/04/04","05:00",0.0,7.6,90.7,1018.5,316.0,3.7,5.2,318.3,0.00,6.2,12.6,"04:58:56",1
"23/04/04","05:10",0.0,7.4,90.8,1019.0,329.9,3.2,4.1,319.1,0.00,6.0,12.4,"05:00:16",1
"23/04/04","05:20",0.0,7.2,90.9,1018.7,325.2,3.0,3.7,316.7,0.00,5.9,12.5,"05:18:16",1
"23/04/04","05:30",0.0,7.2,91.3,1019.4,327.0,3.2,4.9,334.7,0.00,5.9,12.4,"05:23:04",1
"23/04/04","05:40",0.0,7.0,91.6,1019.0,324.0,3.4,4.1,321.1,0.00,5.8,12.4,"05:37:06",1
"23/04/04","05:50",0.0,7.2,91.9,1019.2,307.4,3.6,5.5,310.1,0.00,6.0,12.3,"05:45:16",1
"23/04/04","06:00",0.0,7.2,92.0,1019.2,307.2,3.9,5.0,311.1,0.00,6.0,12.2,"05:53:38",1
"23/04/04","06:10",0.0,7.1,92.0,1019.4,317.7,3.5,4.8,325.8,0.00,5.9,12.3,"06:01:46",1
"23/04/04","06:20",0.0,6.8,92.1,1019.4,333.5,2.6,4.3,325.8,0.00,5.6,12.3,"06:10:24",1
"23/04/04","06:30",0.0,6.5,92.5,1019.7,327.9,3.1,4.1,323.9,0.00,5.4,12.3,"06:29:04",1
"23/04/04","06:40",0.0,6.6,92.5,1020.1,294.3,2.6,3.6,327.9,0.00,5.5,12.0,"06:31:14",1
"23/04/04","06:50",0.0,6.7,92.8,1019.9,307.0,3.1,4.0,324.4,0.00,5.7,12.1,"06:45:18",1
"23/04/04","07:00",0.0,6.9,93.0,1019.9,290.3,2.2,3.3,314.3,0.00,5.9,12.0,"06:52:16",1
"23/04/04","07:10",0.0,7.2,93.0,1019.9,284.3,2.2,2.8,293.5,0.01,6.2,12.0,"07:05:04",1
"23/04/04","07:20",0.0,7.6,93.0,1020.4,292.1,2.2,2.7,302.3,0.02,6.6,12.1,"07:18:48",1
"23/04/04","07:30",0.0,7.9,92.8,1020.4,301.2,2.3,3.4,325.6,0.03,6.8,12.1,"07:29:52",1
"23/04/04","07:40",0.0,8.5,92.6,1020.6,315.2,2.5,3.3,332.6,0.05,7.4,12.0,"07:36:16",1
"23/04/04","07:50",0.0,9.2,92.2,1020.6,309.2,1.5,2.5,320.9,0.06,8.0,12.0,"07:41:04",1
"23/04/04","08:00",0.0,9.9,91.2,1020.8,354.0,0.7,1.3,335.8,0.09,8.6,11.9,"07:50:24",1
"23/04/04","08:10",0.0,10.5,90.4,1020.8,329.8,0.6,1.3,334.5,0.09,9.0,12.2,"08:03:04",1
"23/04/04","08:20",0.0,11.3,88.6,1021.1,183.8,0.3,1.3,326.5,0.15,9.5,12.0,"08:14:10",1
"23/04/04","08:30",0.0,11.9,87.0,1021.3,289.2,1.0,1.8,325.4,0.17,9.8,12.2,"08:25:50",1
"23/04/04","08:40",0.0,12.5,84.3,1021.5,274.2,0.7,1.4,244.6,0.21,10.0,12.0,"08:36:32",1
"23/04/04","08:50",0.0,13.5,81.8,1021.8,282.8,0.3,1.3,329.8,0.24,10.5,12.0,"08:40:08",1
"23/04/04","09:00",0.0,13.7,77.9,1021.5,213.9,0.5,1.2,142.0,0.27,10.0,11.9,"08:58:16",1
"23/04/04","09:10",0.0,14.0,76.0,1021.8,220.1,0.6,1.2,245.2,0.30,9.9,12.1,"09:02:56",1
"23/04/04","09:20",0.0,15.0,73.6,1021.3,353.5,0.3,1.2,132.3,0.32,10.4,12.1,"09:13:28",1
"23/04/04","09:30",0.0,15.2,71.0,1021.3,291.5,0.8,1.9,117.9,0.35,10.0,12.2,"09:28:40",1
"23/04/04","09:40",0.0,15.5,68.7,1020.8,354.4,0.8,1.6,346.6,0.36,9.8,12.4,"09:37:36",1
"23/04/04","09:50",0.0,15.9,68.5,1020.8,185.1,1.1,2.5,161.1,0.39,10.2,12.2,"09:45:04",1
"23/04/04","10:00",0.0,16.1,67.7,1020.6,166.5,1.1,2.1,132.4,0.42,10.2,12.5,"09:51:04",1
"23/04/04","10:10",0.0,16.4,66.7,1020.6,154.7,1.0,2.4,149.7,0.44,10.2,12.5,"10:00:24",1
"23/04/04","10:20",0.0,16.4,65.7,1020.8,198.9,1.2,3.1,121.1,0.46,10.0,12.5,"10:14:56",1
"23/04/04","10:30",0.0,16.6,64.7,1020.6,178.3,1.1,3.5,114.7,0.48,10.0,12.7,"10:27:28",1
"23/04/04","10:40",0.0,17.2,63.0,1020.4,232.7,1.1,2.0,186.2,0.49,10.1,12.7,"10:33:36",1
"23/04/04","10:50",0.0,17.6,62.4,1020.6,146.3,1.8,4.1,115.6,0.51,10.4,12.7,"10:43:04",1
"23/04/04","11:00",0.0,17.7,62.8,1019.9,194.9,1.6,3.3,152.4,0.52,10.6,12.9,"10:51:20",1
"23/04/04","11:10",0.0,18.0,60.4,1019.7,347.6,1.2,2.8,340.4,0.54,10.3,13.0,"11:08:48",1
"23/04/04","11:20",0.0,18.2,60.0,1019.7,119.3,1.5,3.4,347.0,0.55,10.4,13.2,"11:10:32",1
"23/04/04","11:30",0.0,18.5,59.2,1019.2,83.1,1.7,3.3,134.4,0.56,10.4,13.2,"11:28:08",1
"23/04/04","11:40",0.0,19.0,58.3,1019.0,102.7,1.2,2.8,112.8,0.58,10.7,13.4,"11:31:44",1
"23/04/04","11:50",0.0,19.2,56.4,1018.7,103.7,1.7,4.5,122.5,0.57,10.4,13.4,"11:44:24",1
"23/04/04","12:00",0.0,20.0,55.5,1018.2,145.1,2.0,4.0,116.7,0.59,10.9,13.5,"11:58:48",1
"23/04/04","12:10",0.0,20.1,53.0,1018.2,151.7,2.1,4.1,153.0,0.57,10.3,13.5,"12:06:08",1
"23/04/04","12:20",0.0,20.5,52.1,1018.0,150.4,1.8,4.2,126.1,0.60,10.4,13.6,"12:16:48",1
"23/04/04","12:30",0.0,20.8,52.6,1017.8,166.7,2.2,4.5,109.2,0.54,10.8,13.9,"12:26:32",1
"23/04/04","12:40",0.0,20.9,51.7,1017.8,142.7,2.3,5.9,119.8,0.53,10.6,14.0,"12:31:44",1
"23/04/04","12:50",0.0,21.2,49.4,1017.5,162.5,2.2,4.9,120.8,0.61,10.2,14.0,"12:45:28",1
"23/04/04","13:00",0.0,21.2,47.4,1017.3,148.9,2.3,4.5,162.6,0.60,9.6,14.2,"12:51:44",1
"23/04/04","13:10",0.0,21.8,45.6,1017.3,171.3,1.5,3.7,210.8,0.60,9.6,14.0,"13:09:20",1
"23/04/04","13:20",0.0,21.9,46.0,1016.8,144.5,2.2,4.7,147.0,0.59,9.8,14.5,"13:11:04",1
"23/04/04","13:30",0.0,21.7,44.7,1016.8,157.2,2.8,6.0,120.4,0.58,9.2,14.4,"13:28:32",1
"23/04/04","13:40",0.0,22.1,42.0,1016.8,148.3,3.0,5.7,193.4,0.58,8.6,14.6,"13:33:04",1
"23/04/04","13:50",0.0,22.3,40.6,1016.6,169.4,3.0,4.8,155.0,0.57,8.3,14.6,"13:44:48",1
"23/04/04","14:00",0.0,22.4,42.2,1016.1,202.6,2.5,7.2,238.6,0.55,9.0,14.8,"13:54:24",1
"23/04/04","14:10",0.0,22.1,42.0,1016.6,188.8,2.5,5.1,222.8,0.53,8.6,14.8,"14:03:36",1
"23/04/04","14:20",0.0,22.3,40.4,1016.4,156.6,3.1,5.5,106.2,0.53,8.2,15.2,"14:11:44",1
"23/04/04","14:30",0.0,22.6,40.2,1016.4,145.3,2.5,5.6,159.5,0.52,8.4,15.0,"14:21:52",1
"23/04/04","14:40",0.0,22.5,40.1,1016.1,169.9,2.7,4.7,207.1,0.50,8.3,15.2,"14:37:28",1
"23/04/04","14:50",0.0,23.1,39.5,1015.9,176.3,2.2,4.8,140.7,0.48,8.6,15.2,"14:48:32",1
"23/04/04","15:00",0.0,23.0,40.2,1015.6,182.4,3.1,6.7,124.1,0.47,8.8,15.4,"14:50:24",1
"23/04/04","15:10",0.0,23.1,38.4,1015.9,197.6,2.5,5.1,205.5,0.45,8.2,15.3,"15:06:32",1
"23/04/04","15:20",0.0,23.1,39.2,1015.6,242.6,2.5,6.4,168.0,0.43,8.5,15.5,"15:19:28",1
"23/04/04","15:30",0.0,23.0,39.1,1015.2,155.3,2.5,5.2,164.4,0.41,8.4,15.6,"15:28:24",1
"23/04/04","15:40",0.0,22.9,41.2,1015.4,203.1,2.8,7.0,233.1,0.39,9.1,15.5,"15:34:48",1
"23/04/04","15:50",0.0,23.2,40.4,1015.4,211.9,2.2,4.4,162.9,0.36,9.1,15.7,"15:41:28",1
"23/04/04","16:00",0.0,23.0,41.1,1015.4,199.2,2.7,4.3,234.2,0.33,9.1,15.7,"15:58:48",1
"23/04/04","16:10",0.0,22.7,42.7,1015.2,210.0,2.8,6.3,224.0,0.32,9.4,15.8,"16:07:52",1
"23/04/04","16:20",0.0,22.8,43.1,1014.9,213.3,2.3,3.5,198.1,0.29,9.7,15.8,"16:11:28",1
"23/04/04","16:30",0.0,21.9,44.9,1015.6,215.3,2.8,5.1,233.1,0.16,9.4,15.8,"16:20:16",1
"23/04/04","16:40",0.0,21.3,47.0,1015.6,205.0,2.6,4.4,231.1,0.07,9.6,15.8,"16:38:24",1
"23/04/04","16:50",0.0,21.2,48.5,1015.9,249.5,2.1,4.4,260.6,0.09,10.0,15.9,"16:44:16",1
"23/04/04","17:00",0.0,20.8,49.9,1015.9,256.3,2.6,6.6,242.1,0.11,10.0,15.8,"16:58:08",1
"23/04/04","17:10",0.0,20.7,50.3,1016.1,266.9,2.3,5.6,259.2,0.15,10.0,15.9,"17:06:40",1
"23/04/04","17:20",0.0,21.1,48.5,1015.9,261.1,3.0,5.7,245.7,0.19,9.9,15.9,"17:10:48",1
"23/04/04","17:30",0.0,21.1,48.2,1016.1,260.5,3.1,5.4,253.8,0.15,9.8,15.7,"17:23:44",1
"23/04/04","17:40",0.0,21.0,48.8,1015.9,265.3,3.0,6.6,309.7,0.12,9.9,15.8,"17:36:56",1
"23/04/04","17:50",0.0,20.8,48.6,1015.9,277.8,2.5,4.7,277.3,0.09,9.6,15.8,"17:48:48",1
"23/04/04","18:00",0.0,20.2,49.2,1016.4,256.9,2.8,6.4,256.2,0.06,9.3,15.9,"17:59:36",1
"23/04/04","18:10",0.0,20.0,50.6,1016.6,252.6,2.5,6.2,243.5,0.04,9.5,15.7,"18:07:12",1
"23/04/04","18:20",0.0,19.8,50.8,1016.6,257.4,2.3,5.6,242.3,0.02,9.4,15.7,"18:13:12",1
"23/04/04","18:30",0.0,19.5,51.8,1016.6,266.3,2.2,5.2,239.4,0.01,9.4,15.8,"18:24:08",1
"23/04/04","18:40",0.0,19.1,52.2,1016.8,264.7,1.8,3.3,248.9,0.00,9.1,16.0,"18:35:04",1
"23/04/04","18:50",0.0,18.8,52.8,1016.8,261.6,2.0,4.4,218.1,0.00,9.0,15.8,"18:44:40",1
"23/04/04","19:00",0.0,18.4,54.1,1017.1,264.7,1.5,4.1,249.6,0.00,9.0,15.7,"18:55:52",1
"23/04/04","19:10",0.0,18.1,55.2,1017.1,301.3,2.2,3.7,298.8,0.00,9.0,15.6,"19:08:56",1
"23/04/04","19:20",0.0,17.7,56.9,1017.1,273.4,1.8,3.3,312.3,0.00,9.1,15.7,"19:12:08",1
"23/04/04","19:30",0.0,17.4,58.8,1017.1,269.4,1.7,3.2,242.1,0.00,9.3,15.6,"19:24:16",1
"23/04/04","19:40",0.0,17.2,59.6,1017.5,285.3,1.7,4.7,348.0,0.00,9.3,15.7,"19:36:48",1
"23/04/04","19:50",0.0,16.9,60.7,1017.5,318.2,1.6,2.7,302.0,0.00,9.3,15.5,"19:42:32",1
"23/04/04","20:00",0.0,16.8,61.9,1017.5,307.5,2.2,3.7,278.1,0.00,9.5,15.5,"19:54:06",1
"23/04/04","20:10",0.0,16.8,62.4,1017.8,308.6,2.6,3.9,335.8,0.00,9.6,15.6,"20:08:52",1
"23/04/04","20:20",0.0,16.7,62.7,1018.0,312.9,2.6,4.0,322.6,0.00,9.6,15.5,"20:16:32",1
"23/04/04","20:30",0.0,16.5,63.6,1018.2,321.3,2.5,3.5,324.4,0.00,9.6,15.2,"20:23:32",1
"23/04/04","20:40",0.0,16.2,64.4,1018.5,330.9,2.7,4.1,295.6,0.00,9.5,15.5,"20:30:48",1
"23/04/04","20:50",0.0,16.1,65.2,1018.5,322.8,2.2,3.1,305.0,0.00,9.6,15.4,"20:45:52",1
"23/04/04","21:00",0.0,15.8,66.1,1019.0,330.7,1.8,2.7,315.9,0.00,9.5,15.2,"20:56:54",1
"23/04/04","21:10",0.0,15.7,66.7,1019.0,338.1,1.1,1.8,338.5,0.00,9.6,15.3,"21:00:32",1
"23/04/04","21:20",0.0,15.2,67.5,1019.2,299.0,0.7,1.3,317.0,0.00,9.3,15.4,"21:15:20",1
"23/04/04","21:30",0.0,14.9,68.7,1019.2,299.0,1.0,1.9,326.7,0.00,9.2,15.3,"21:25:12",1
"23/04/04","21:40",0.0,14.8,70.2,1019.0,324.4,1.5,2.5,336.3,0.00,9.5,15.2,"21:39:52",1
"23/04/04","21:50",0.0,14.6,71.9,1019.0,336.3,2.1,2.8,342.5,0.00,9.6,14.9,"21:42:30",1
"23/04/04","22:00",0.0,14.5,73.0,1019.2,334.0,1.6,2.7,341.3,0.00,9.8,15.2,"21:50:16",1
"23/04/04","22:10",0.0,14.6,74.0,1019.4,330.4,1.7,2.5,337.9,0.00,10.1,14.9,"22:03:12",1
"23/04/04","22:20",0.0,14.4,74.5,1019.2,323.5,1.6,1.9,334.5,0.00,10.0,14.7,"22:12:24",1
"23/04/04","22:30",0.0,14.2,75.1,1019.0,326.2,1.6,2.4,326.3,0.00,9.9,15.0,"22:23:52",1
"23/04/04","22:40",0.0,13.9,76.0,1019.0,311.1,1.7,2.1,337.2,0.00,9.8,15.0,"22:38:24",1
"23/04/04","22:50",0.0,13.9,77.0,1019.0,307.3,2.5,3.7,318.7,0.00,10.0,14.7,"22:47:04",1
"23/04/04","23:00",0.0,13.9,77.5,1018.7,317.5,2.5,3.7,327.0,0.00,10.1,14.9,"22:50:24",1
"23/04/04","23:10",0.0,13.8,78.0,1018.7,306.6,1.1,2.4,334.3,0.00,10.1,14.8,"23:00:24",1
"23/04/04","23:20",0.0,13.8,78.3,1018.5,273.3,1.5,1.8,259.9,0.00,10.1,14.8,"23:12:56",1
"23/04/04","23:30",0.0,13.9,78.5,1018.7,301.6,1.8,2.5,332.9,0.00,10.3,14.6,"23:29:28",1
"23/04/04","23:40",0.0,13.8,78.6,1018.7,320.8,1.7,2.5,331.5,0.00,10.2,14.7,"23:30:08",1
"23/04/04","23:50",0.0,13.7,78.7,1019.2,305.1,1.5,1.9,318.1,0.00,10.1,14.7,"23:49:44",1
"23/04/04","24:00",0.0,13.6,79.3,1019.2,314.0,2.1,2.5,318.1,0.00,10.1,14.5,"23:50:02",1
